Theta_e
308 310 312 315 315 319 321 324 335 351 349 343 338 335 333 336 337 339 343 337 339 341 339 337 333 336 336 340 340 338 338 336 337 334 335 336 339 340 341 343 344 344 346
305 308 311 314 317 317 321 321 324 333 345 347 347 345 343 339 341 341 347 347 343 342 341 339 338 338 339 341 341 339 337 337 338 334 336 329 334 337 340 342 343 344 344
303 306 309 313 315 317 319 320 322 324 331 343 346 346 345 345 342 344 346 346 345 344 343 345 343 341 343 340 341 341 340 337 338 339 337 328 326 333 337 339 341 343 342
305 307 308 310 312 314 316 319 322 323 323 332 337 345 341 340 344 344 346 348 347 346 346 347 346 345 343 345 343 342 342 341 337 335 339 337 336 328 326 334 336 339 339
307 307 308 308 310 313 314 317 320 323 326 326 333 335 342 344 346 345 351 354 349 350 348 350 348 346 345 346 345 343 341 340 338 336 335 336 335 333 329 326 329 333 336
306 308 309 310 310 312 312 315 317 322 325 325 328 332 336 340 339 342 342 343 344 347 350 350 349 349 348 346 345 344 343 341 340 340 339 335 332 330 329 329 331 331 334
307 307 307 308 309 311 314 314 315 318 322 322 324 329 333 336 339 342 340 342 340 342 349 350 350 348 348 348 346 344 342 341 339 341 337 338 335 338 335 333 331 329 333
305 306 308 308 309 311 313 314 315 315 318 321 322 327 332 333 337 341 338 337 337 343 352 349 350 349 348 347 345 343 343 343 342 341 337 336 337 336 334 333 331 328 328
305 306 308 308 309 312 314 315 314 315 318 320 322 325 329 335 338 346 346 342 343 343 347 347 347 347 347 347 346 345 345 344 343 338 337 335 337 334 337 336 335 330 323
305 307 308 307 310 314 315 316 316 315 317 319 321 322 326 333 337 343 343 344 345 344 344 345 347 348 348 348 349 347 347 345 340 337 338 340 335 335 335 335 334 332 328
304 306 307 308 312 314 316 318 319 318 315 317 319 322 325 330 335 336 339 341 343 343 343 345 346 347 348 349 348 344 345 340 336 337 336 336 338 336 334 334 333 331 330
304 305 306 308 312 312 312 314 317 319 317 316 318 321 325 329 332 334 337 340 341 343 343 345 346 348 348 348 345 342 341 336 334 337 339 337 335 337 336 334 334 332 332
304 304 305 306 310 311 311 312 315 317 321 320 320 321 325 329 332 333 337 340 341 342 343 345 346 347 347 345 342 344 341 340 341 339 337 338 336 335 334 334 333 332 330
303 304 304 305 310 311 311 311 312 316 319 325 326 323 327 331 332 334 337 339 341 342 344 345 346 347 345 344 343 342 340 339 334 335 339 337 336 335 335 334 333 331 329
301 302 303 306 308 308 311 312 312 315 319 322 326 328 331 333 333 334 337 339 341 342 344 345 345 345 344 341 342 338 336 333 336 337 336 337 334 326 330 333 333 332 327
300 301 303 306 306 307 310 312 312 315 318 321 324 330 333 332 333 336 337 338 341 343 344 344 344 343 340 311 315 328 335 336 336 335 335 335 324 323 315 317 318 322 326
300 301 303 303 305 307 310 312 314 315 317 321 323 329 335 332 333 334 334 335 338 342 342 344 343 342 339 307 309 315 336 336 336 335 333 331 332 326 330 313 312 313 312
301 302 303 305 307 308 310 313 314 315 316 320 322 332 333 331 332 333 334 335 340 342 342 341 339 334 321 303 303 310 337 336 335 335 334 332 331 330 328 326 325 325 329
302 303 304 307 307 308 311 312 311 314 313 322 322 332 331 330 331 333 334 337 339 337 337 334 330 322 315 301 303 321 334 332 332 332 332 332 331 308 306 323 322 325 324
303 303 305 307 308 309 311 310 310 311 318 321 323 332 332 332 334 333 334 335 336 332 326 326 330 319 321 299 302 320 330 328 326 327 328 306 323 299 301 323 321 320 322
303 305 307 307 309 311 311 310 312 316 320 323 327 331 332 333 333 333 333 330 329 324 325 324 324 324 321 313 300 306 329 327 327 327 328 321 298 298 300 308 322 319 323
303 305 305 307 309 311 310 311 314 320 324 324 328 330 330 330 330 329 328 327 322 323 322 322 322 323 323 307 300 302 312 314 328 328 325 311 297 297 299 310 298 300 311
303 306 305 306 309 310 313 313 316 322 326 327 328 328 329 328 329 325 324 321 322 321 320 320 320 321 324 322 299 299 300 307 326 328 308 295 295 296 301 297 299 302 323
301 303 305 305 307 311 313 315 320 322 326 326 326 327 325 326 325 325 326 326 323 322 321 321 321 321 321 322 321 317 316 304 310 305 309 305 307 304 307 310 314 323 324
302 304 304 306 309 312 314 318 321 325 324 325 324 324 326 325 323 321 327 328 329 323 324 324 322 320 320 321 314 316 322 320 312 314 318 320 320 318 320 321 321 321 322
301 303 306 309 309 313 316 320 325 327 327 322 325 322 320 320 321 319 314 295 299 300 301 306 317 321 306 299 299 298 298 298 300 320 319 318 318 318 318 318 319 320 316
Wind_Speed
9 10 12 10 10 8 8 6 7 12 11 11 5 7 11 10 10 10 11 11 11 11 12 8 8 7 7 9 9 8 9 7 5 4 5 7 8 8 7 7 7 8 8
9 10 11 11 10 10 10 7 5 7 9 9 9 9 10 11 11 9 10 12 12 11 11 10 8 8 11 11 9 10 7 7 7 4 2 4 5 6 7 6 6 7 5
7 8 10 12 13 12 11 12 8 6 8 12 9 8 5 7 10 10 10 10 11 12 15 14 10 12 11 9 11 11 12 7 7 9 3 4 5 3 3 7 6 6 6
8 7 9 10 11 13 14 13 12 9 5 9 11 14 12 12 12 12 11 9 13 14 16 12 13 12 10 10 10 10 10 9 8 5 8 5 2 4 3 4 5 5 5
6 7 8 8 12 11 11 13 13 12 9 6 10 11 14 11 10 9 9 9 10 15 14 15 15 12 11 11 11 11 12 9 8 8 6 10 7 5 5 7 5 5 5
6 8 9 9 10 11 10 12 13 14 12 9 8 13 14 14 12 13 11 11 9 9 13 15 13 14 11 13 10 11 12 11 10 9 8 9 7 7 7 8 6 6 4
8 11 15 15 14 13 13 11 11 15 14 13 11 9 14 15 16 14 11 10 8 9 13 15 14 12 12 12 10 11 11 11 11 13 9 6 6 2 4 6 5 5 3
11 13 16 14 13 14 14 14 14 13 14 13 15 11 12 10 11 13 11 9 10 11 10 13 13 13 13 11 10 8 9 10 11 13 8 5 4 5 5 6 5 5 5
15 15 16 14 12 14 16 14 15 16 15 14 13 12 12 13 12 14 12 11 10 11 11 13 12 13 12 11 11 8 10 10 10 8 8 6 6 5 6 5 5 5 5
16 16 13 12 12 13 15 15 14 17 17 16 13 13 13 13 14 13 14 12 11 12 11 12 12 13 11 11 12 10 10 10 7 6 10 9 6 7 5 5 5 5 5
15 15 15 12 12 12 13 14 15 16 15 16 15 15 14 14 13 13 13 13 12 13 13 13 13 12 12 13 12 10 10 10 9 7 9 9 8 7 6 5 5 5 4
16 16 17 16 14 13 14 14 14 15 15 15 15 16 15 13 13 14 14 14 14 12 13 13 12 12 13 14 13 11 10 10 9 11 10 10 7 8 7 6 6 5 4
18 18 18 17 16 14 14 15 16 15 16 16 16 16 17 14 15 15 14 15 14 14 14 14 14 15 15 14 11 12 11 11 11 11 11 10 10 9 7 7 6 5 4
19 18 17 18 16 15 16 18 17 16 17 17 16 17 17 16 15 14 14 15 15 15 15 14 15 15 15 14 13 12 10 9 8 8 9 9 11 10 10 8 7 6 5
21 19 18 17 17 18 17 19 16 17 17 18 18 18 17 16 14 14 14 14 14 14 14 15 14 14 13 11 13 10 10 9 9 8 8 8 9 8 8 7 8 8 6
24 24 20 17 20 19 18 20 17 18 17 19 18 19 16 15 15 13 14 13 14 15 16 16 16 15 10 13 13 11 8 10 9 8 7 7 8 8 8 7 8 9 9
20 21 17 19 19 19 18 19 18 19 18 20 17 18 16 16 15 15 14 16 16 16 17 16 15 14 12 14 14 12 9 8 7 7 6 6 6 8 9 6 6 5 3
19 19 19 19 15 16 19 18 19 17 17 20 15 16 16 15 16 14 16 16 15 16 15 14 14 13 8 12 13 11 9 7 6 6 7 7 8 9 9 8 7 7 8
24 22 20 18 15 16 17 17 20 17 18 19 14 14 12 15 18 19 18 15 14 14 14 14 13 12 8 10 13 11 8 8 7 6 6 6 7 8 9 9 7 7 6
23 20 20 19 17 17 13 15 18 19 19 14 13 12 13 15 17 18 17 14 14 14 11 11 11 12 13 8 10 10 7 9 6 6 6 5 4 9 10 8 8 7 7
19 19 18 17 16 16 15 17 19 19 17 9 12 13 12 13 14 16 16 16 15 13 12 13 11 12 11 8 8 8 8 8 7 7 6 4 7 10 8 9 6 6 7
20 21 17 16 15 15 13 16 20 17 15 10 12 14 14 12 13 18 15 15 16 15 11 13 10 8 9 9 7 7 8 5 8 8 6 5 7 9 10 7 13 11 8
19 19 17 17 16 15 15 16 18 15 12 10 9 12 14 14 16 17 16 13 13 12 10 9 10 9 7 7 7 9 9 7 7 7 9 9 10 10 9 13 14 10 7
20 18 18 18 17 15 15 15 16 11 14 14 12 11 15 16 14 12 12 13 12 11 11 11 10 9 8 8 6 6 7 10 9 10 7 8 10 10 10 8 6 4 5
20 19 18 18 18 14 12 13 11 13 15 14 13 13 13 13 13 10 10 12 12 12 12 10 11 10 9 7 9 8 7 7 8 10 7 7 7 7 6 6 5 4 4
20 22 24 23 20 21 15 11 15 20 18 17 14 11 11 12 12 12 11 20 12 15 14 11 9 6 12 14 12 11 12 14 13 7 6 5 6 6 6 6 5 4 4
Wind_Direction
291 309 317 328 339 349 4 347 231 216 207 202 209 225 215 221 219 224 222 218 206 208 191 185 164 224 243 211 194 212 226 223 219 232 241 252 241 240 237 243 242 248 243
276 293 310 321 330 328 333 339 333 287 233 219 210 221 231 216 213 217 222 214 202 191 190 192 213 189 217 207 193 201 211 225 195 215 234 260 207 224 226 232 235 240 239
269 291 304 315 323 329 333 324 321 297 263 234 222 216 238 242 214 217 217 217 199 188 198 195 187 200 211 201 195 202 210 216 199 200 205 200 232 203 179 217 235 243 245
276 279 305 320 327 322 320 317 317 310 284 251 233 224 214 230 228 213 210 217 199 197 208 192 203 205 209 202 196 201 210 210 209 199 227 249 275 219 188 213 221 230 228
306 306 318 315 309 315 314 310 310 305 303 259 240 228 228 221 240 244 235 216 206 206 203 203 202 198 209 208 192 196 204 202 211 212 180 221 234 248 257 248 197 213 223
321 325 316 313 308 312 309 311 310 300 304 305 267 235 233 228 225 228 235 242 237 224 215 206 203 205 198 210 192 201 201 201 208 210 196 188 199 200 215 246 241 246 182
319 327 326 324 324 323 319 315 311 298 298 300 289 262 237 230 227 223 222 217 215 214 213 203 202 199 193 204 188 193 199 198 206 206 204 191 208 161 213 243 244 251 173
334 321 321 311 313 319 314 308 304 289 284 290 289 283 264 242 226 223 220 214 217 224 207 204 201 195 189 186 178 192 200 197 206 206 194 195 191 194 202 229 226 219 211
327 327 324 306 306 313 311 307 303 294 281 273 279 271 260 244 233 228 215 214 212 225 206 195 190 191 185 169 175 190 190 193 196 190 185 198 202 200 222 210 221 248 247
328 331 329 305 301 306 307 309 304 294 287 280 273 269 263 248 235 225 225 216 209 209 194 187 185 185 164 171 178 180 184 187 183 180 189 195 187 194 196 207 206 222 256
322 317 320 303 294 299 305 312 313 302 287 280 274 268 262 249 241 230 224 222 208 197 196 188 183 168 168 175 175 178 174 186 170 175 188 187 185 187 184 194 199 200 215
311 313 314 302 294 295 300 309 316 310 291 283 277 266 263 254 237 226 219 213 207 196 187 185 183 169 173 173 173 173 177 166 173 184 188 186 179 182 181 191 194 198 192
310 310 302 297 294 299 303 304 310 315 304 292 285 269 258 248 236 224 214 205 199 188 184 181 176 172 172 169 170 179 175 181 185 178 187 183 183 185 183 194 191 189 177
300 300 300 297 294 300 299 302 310 312 305 293 289 270 257 238 227 218 207 202 193 182 179 176 174 171 167 169 170 173 171 163 167 173 187 187 192 192 189 191 194 183 172
300 296 301 292 295 298 298 294 308 308 307 292 293 270 257 243 218 205 196 191 186 179 169 165 167 167 166 169 165 163 153 157 173 176 192 196 200 194 196 191 187 179 168
296 290 287 284 294 296 297 288 306 302 301 291 287 280 252 229 206 187 182 172 175 168 162 163 166 164 168 137 138 143 154 172 172 180 187 190 183 187 178 177 166 169 180
295 293 284 292 289 290 294 290 299 297 292 286 284 270 232 212 190 174 165 169 164 158 159 160 160 160 150 144 139 145 163 163 172 180 187 196 197 189 184 158 168 190 205
294 292 288 289 285 285 285 293 289 284 291 286 280 250 211 194 180 165 161 159 154 152 151 151 145 138 122 135 134 145 153 152 165 180 179 177 170 178 177 169 172 183 188
287 288 288 284 283 277 284 287 285 293 291 282 279 225 187 180 172 158 152 148 137 139 140 134 131 119 121 132 136 148 153 148 159 161 165 167 166 155 157 156 156 151 135
287 287 285 289 282 277 277 280 269 273 272 269 268 200 177 176 165 148 138 130 129 128 115 111 124 123 133 135 135 153 149 145 141 125 125 55 163 150 165 154 145 147 150
286 283 280 277 273 275 270 265 264 267 274 244 246 179 165 152 148 128 126 121 122 112 107 118 124 126 129 139 141 155 148 145 148 145 134 102 122 133 140 131 138 141 149
292 287 280 274 272 263 260 260 267 269 265 236 192 159 143 139 129 124 120 123 115 117 122 121 115 114 130 136 145 127 102 133 143 133 115 112 135 137 139 125 128 129 140
294 292 286 278 268 261 250 253 262 258 236 197 152 140 133 130 130 125 124 115 117 122 125 125 131 133 140 134 112 107 119 111 128 117 99 117 109 107 96 123 132 149 150
294 290 283 273 264 252 246 244 253 214 207 161 144 136 127 123 124 122 123 128 132 136 137 140 136 140 142 141 127 126 115 106 94 107 112 106 94 80 108 123 151 137 151
292 290 279 268 261 248 229 229 222 205 160 138 129 123 119 119 114 93 126 138 143 146 145 144 147 151 155 157 152 151 147 139 129 128 130 124 124 130 131 126 120 123 142
296 287 279 238 234 244 218 212 166 144 139 136 129 122 121 119 121 109 86 43 69 81 83 112 146 125 115 129 130 121 120 127 151 142 132 127 133 134 132 130 130 131 138